Weather History for KMOP - November, 2012

Change the Weather History Date:

Thursday, November 15, 2012

  Actual Average (KAMN) Record (KAMN)
Temperature  
Mean Temperature 34 °F -  
Max Temperature 45 °F 43 °F 67 °F (1953)
Min Temperature 23 °F 28 °F 7 °F (1959)
Degree Days  
Heating Degree Days 32    
Moisture  
Dew Point 26 °F    
Average Humidity 78    
Maximum Humidity 94    
Minimum Humidity 50    
Precipitation  
Precipitation 0.00 in - - ()
Sea Level Pressure  
Sea Level Pressure 30.36 in    
Wind  
Wind Speed 1 mph (South)    
Max Wind Speed 8 mph    
Max Gust Speed -    
Visibility 8 miles    
Events      
Averages and records for this station are not official NWS values.
T = Trace of Precipitation, MM = Missing Value Source: NWS Daily Summary

Daily Weather History Graph

Daily Weather History Graph

Search for Another Location

Airport or City:

Trip Planner

Search our weather history database for the weather conditions in past years. The results will help you decide how hot, cold, wet, or windy it might be!

Date:

Astronomy

Nov. 15, 2012 Rise Set
Actual Time 7:33 AM EST 5:13 PM EST
Civil Twilight 7:02 AM EST 5:44 PM EST
Nautical Twilight 6:27 AM EST 6:18 PM EST
Astronomical Twilight 5:53 AM EST 6:52 PM EST
Moon 9:30 AM EST (11/15) 7:01 PM EST (11/15)
Length of Visible Light 10h 41m
Length of Day
9h 39m
Waxing Crescent, 5% of the Moon is Illuminated
Nov 15
Waxing Crescent
Nov 20
First Quarter
Nov 28
Full
Dec 6
Last Quarter
Dec 13
New

Hourly Weather History & Observations

Time (EST) Temp. Windchill Dew Point Humidity Pressure Visibility Wind Dir Wind Speed Gust Speed Precip Events Conditions
12:03 AM 28.4 °F - 23.9 °F 83% 30.42 in 10.0 mi Calm Calm - N/A   Clear
12:37 AM 30.9 °F - 24.8 °F 78% 30.42 in 10.0 mi Calm Calm - N/A   Clear
12:55 AM 30.7 °F - 24.6 °F 78% 30.41 in 10.0 mi Calm Calm - N/A   Clear
1:15 AM 30.7 °F 24.9 °F 25.2 °F 80% 30.40 in 10.0 mi SE 5.8 mph - N/A   Clear
1:35 AM 30.9 °F 27.5 °F 24.8 °F 78% 30.40 in 10.0 mi SSE 3.5 mph - N/A   Clear
1:55 AM 30.2 °F - 24.6 °F 80% 30.40 in 10.0 mi Calm Calm - N/A   Clear
2:15 AM 30.4 °F - 24.8 °F 80% 30.40 in 10.0 mi Calm Calm - N/A   Clear
2:35 AM 28.4 °F - 23.9 °F 83% 30.40 in 10.0 mi Calm Calm - N/A   Clear
2:55 AM 27.9 °F - 24.6 °F 88% 30.40 in 7.0 mi Calm Calm - N/A   Clear
3:15 AM 26.8 °F - 23.7 °F 88% 30.40 in 7.0 mi Calm Calm - N/A   Clear
3:35 AM 26.6 °F - 23.9 °F 90% 30.40 in 7.0 mi Calm Calm - N/A   Clear
3:55 AM 26.6 °F - 23.7 °F 89% 30.39 in 7.0 mi Calm Calm - N/A   Clear
4:15 AM 26.4 °F - 23.5 °F 89% 30.39 in 5.0 mi Calm Calm - N/A   Clear
4:35 AM 26.4 °F - 23.7 °F 90% 30.38 in 5.0 mi Calm Calm - N/A   Clear
4:55 AM 25.5 °F - 23.0 °F 90% 30.39 in 4.0 mi Calm Calm - N/A   Clear
5:15 AM 25.3 °F - 23.2 °F 91% 30.38 in 4.0 mi Calm Calm - N/A   Clear
5:35 AM 25.3 °F - 23.5 °F 93% 30.38 in 2.5 mi Calm Calm - N/A   Clear
5:55 AM 24.4 °F - 22.8 °F 94% 30.38 in 2.5 mi Calm Calm - N/A   Clear
6:15 AM 25.2 °F - 23.7 °F 94% 30.38 in 3.0 mi Calm Calm - N/A   Clear
6:35 AM 23.2 °F - 21.6 °F 94% 30.38 in 3.0 mi Calm Calm - N/A   Clear
6:55 AM 24.3 °F - 22.6 °F 94% 30.38 in 2.5 mi Calm Calm - N/A   Clear
7:15 AM 24.4 °F - 22.6 °F 93% 30.39 in 5.0 mi Calm Calm - N/A   Clear
7:35 AM 24.6 °F - 23.0 °F 94% 30.39 in 3.0 mi Calm Calm - N/A   Clear
7:55 AM 23.9 °F - 22.3 °F 94% 30.39 in 2.5 mi Calm Calm - N/A   Clear
8:15 AM 24.8 °F - 23.0 °F 93% 30.39 in 3.0 mi Calm Calm - N/A   Clear
8:35 AM 27.7 °F - 26.1 °F 94% 30.39 in 3.0 mi Calm Calm - N/A   Clear
8:55 AM 29.7 °F - 27.0 °F 90% 30.39 in 4.0 mi Calm Calm - N/A   Clear
9:16 AM 30.4 °F - 27.1 °F 88% 30.40 in 5.0 mi Calm Calm - N/A   Clear
9:35 AM 32.0 °F - 28.0 °F 85% 30.39 in 5.0 mi Calm Calm - N/A   Clear
9:55 AM 32.5 °F - 28.9 °F 87% 30.39 in 5.0 mi Calm Calm - N/A   Clear
10:15 AM 33.4 °F 30.4 °F 29.3 °F 85% 30.38 in 5.0 mi SSE 3.5 mph - N/A   Haze
10:35 AM 35.2 °F 29.5 °F 30.0 °F 81% 30.39 in 7.0 mi South 6.9 mph - N/A   Clear
10:55 AM 36.7 °F 31.2 °F 30.0 °F 77% 30.39 in 7.0 mi South 6.9 mph - N/A   Clear
11:15 AM 37.4 °F 32.8 °F 29.8 °F 74% 30.39 in 10.0 mi SSE 5.8 mph - N/A   Clear
11:35 AM 38.3 °F 35.9 °F 29.7 °F 71% 30.38 in 10.0 mi SSE 3.5 mph - N/A   Clear
11:55 AM 39.7 °F 35.6 °F 29.8 °F 68% 30.38 in 10.0 mi SW 5.8 mph - N/A   Clear
12:15 PM 40.1 °F 38.0 °F 29.1 °F 65% 30.37 in 10.0 mi SSE 3.5 mph - N/A   Clear
12:35 PM 41.0 °F 38.0 °F 29.3 °F 63% 30.36 in 10.0 mi South 4.6 mph - N/A   Clear
12:55 PM 41.5 °F 39.6 °F 29.3 °F 62% 30.35 in 10.0 mi SW 3.5 mph - N/A   Clear
1:15 PM 41.9 °F 38.2 °F 29.1 °F 61% 30.34 in 10.0 mi South 5.8 mph - N/A   Clear
1:35 PM 42.6 °F 39.9 °F 29.1 °F 59% 30.33 in 10.0 mi SSW 4.6 mph - N/A   Clear
1:55 PM 43.2 °F 41.5 °F 28.8 °F 57% 30.33 in 10.0 mi SSW 3.5 mph - N/A   Clear
2:15 PM 44.2 °F - 27.5 °F 52% 30.32 in 10.0 mi Calm Calm - N/A   Clear
2:35 PM 43.7 °F 41.1 °F 27.7 °F 53% 30.32 in 10.0 mi South 4.6 mph - N/A   Clear
2:55 PM 44.4 °F - 27.9 °F 52% 30.32 in 10.0 mi Calm Calm - N/A   Clear
3:15 PM 44.6 °F 40.2 °F 26.8 °F 50% 30.31 in 10.0 mi SSW 8.1 mph - N/A   Clear
3:35 PM 44.1 °F 42.5 °F 26.6 °F 50% 30.31 in 10.0 mi SSW 3.5 mph - N/A   Clear
3:55 PM 43.9 °F 40.5 °F 26.1 °F 50% 30.31 in 10.0 mi SW 5.8 mph - N/A   Clear
4:15 PM 43.7 °F 41.1 °F 26.8 °F 51% 30.32 in 10.0 mi SW 4.6 mph - N/A   Clear
4:35 PM 43.2 °F 39.7 °F 26.6 °F 52% 30.32 in 10.0 mi SSW 5.8 mph - N/A   Clear
4:55 PM 42.1 °F 39.2 °F 26.6 °F 54% 30.31 in 10.0 mi SW 4.6 mph - N/A   Clear
5:15 PM 41.0 °F 39.0 °F 26.6 °F 57% 30.32 in 10.0 mi SW 3.5 mph - N/A   Clear
5:35 PM 40.8 °F - 27.0 °F 58% 30.32 in 10.0 mi Calm Calm - N/A   Clear
5:55 PM 36.0 °F - 26.4 °F 68% 30.32 in 10.0 mi Calm Calm - N/A   Clear
6:35 PM 33.8 °F - 27.0 °F 76% 30.33 in 10.0 mi Calm Calm - N/A   Clear
6:55 PM 32.2 °F - 26.2 °F 79% 30.33 in 10.0 mi Calm Calm - N/A   Clear
7:15 PM 32.2 °F - 27.1 °F 82% 30.33 in 10.0 mi Calm Calm - N/A   Clear
7:35 PM 32.0 °F - 26.8 °F 81% 30.33 in 10.0 mi Calm Calm - N/A   Clear
7:55 PM 32.0 °F - 27.0 °F 82% 30.33 in 10.0 mi Calm Calm - N/A   Clear
8:15 PM 31.8 °F - 26.6 °F 81% 30.34 in 7.0 mi Calm Calm - N/A   Clear
8:35 PM 31.1 °F - 26.6 °F 83% 30.33 in 7.0 mi Calm Calm - N/A   Clear
8:55 PM 30.6 °F - 25.7 °F 82% 30.34 in 7.0 mi Calm Calm - N/A   Clear
9:15 PM 30.9 °F - 26.8 °F 85% 30.34 in 7.0 mi Calm Calm - N/A   Clear
9:35 PM 29.8 °F - 25.3 °F 83% 30.34 in 7.0 mi Calm Calm - N/A   Clear
9:55 PM 30.7 °F - 26.2 °F 83% 30.34 in 7.0 mi Calm Calm - N/A   Clear
10:15 PM 29.8 °F - 25.7 °F 85% 30.34 in 7.0 mi Calm Calm - N/A   Clear
10:35 PM 29.8 °F - 26.4 °F 87% 30.34 in 7.0 mi Calm Calm - N/A   Clear
10:56 PM 29.3 °F - 26.1 °F 88% 30.34 in 7.0 mi Calm Calm - N/A   Clear
11:15 PM 29.3 °F - 26.2 °F 88% 30.34 in 7.0 mi Calm Calm - N/A   Clear
11:35 PM 28.8 °F - 25.5 °F 88% 30.34 in 7.0 mi Calm Calm - N/A   Clear
11:55 PM 29.3 °F - 26.1 °F 88% 30.34 in 7.0 mi Calm Calm - N/A   Clear